User: anonymous   Login
Location: Bambrugge
(50.9212°N, 3.9299°E)
Time: 20:35:06
(UTC+00:00)
Language:

Timation 1 Rocket - Orbit

View from above orbital plane
View from above orbital plane
View from above satellite
View from above satellite

Ground track
Ground track

The orbit data is extracted from the following two-line orbital elements,

1  2825U 67053B   24198.28251467  .00000128  00000-0  12916-3 0  9990
2  2825  69.9720 138.0281 0007487 343.9492  16.1376 13.97459002994629
Epoch (UTC): 16 July 2024 06:46:49
Eccentricity: 0.0007487
inclination: 69.9720°
perigee height: 897 km
apogee height: 908 km
right ascension of ascending node: 138.0281°
argument of perigee: 343.9492°
revolutions per day: 13.97459002
mean anomaly at epoch: 16.1376°
orbit number at epoch: 99462

The dashed part of the orbit path shows where the satellite is in the earth's shadow,  

DLR